TimeCST,TemperatureF,Dew PointF,Humidity,Sea Level PressureIn,VisibilityMPH,Wind Direction,Wind SpeedMPH,Gust SpeedMPH,PrecipitationIn,Events,Conditions,WindDirDegrees,DateUTC
12:53 AM,52.0,43.0,71,30.20,10.0,NNE,3.5,-,N/A,,Clear,20,2013-11-03 05:53:00
1:53 AM,50.0,43.0,77,30.20,10.0,Calm,Calm,-,N/A,,Clear,0,2013-11-03 06:53:00
1:53 AM,46.0,43.0,89,30.20,10.0,Calm,Calm,-,N/A,,Clear,0,2013-11-03 07:53:00
2:53 AM,45.0,42.1,90,30.19,10.0,NNE,3.5,-,N/A,,Clear,30,2013-11-03 08:53:00
3:53 AM,45.0,42.1,90,30.18,10.0,NNE,3.5,-,N/A,,Clear,30,2013-11-03 09:53:00
4:53 AM,43.0,39.9,89,30.20,10.0,Calm,Calm,-,N/A,,Clear,0,2013-11-03 10:53:00
5:53 AM,43.0,41.0,93,30.22,10.0,Calm,Calm,-,N/A,,Clear,0,2013-11-03 11:53:00
6:53 AM,43.0,41.0,93,30.22,10.0,Calm,Calm,-,N/A,,Clear,0,2013-11-03 12:53:00
7:53 AM,50.0,43.0,77,30.24,10.0,NE,8.1,-,N/A,,Clear,50,2013-11-03 13:53:00
8:53 AM,55.0,43.0,64,30.26,10.0,ENE,9.2,-,N/A,,Clear,70,2013-11-03 14:53:00
9:53 AM,60.1,43.0,53,30.25,10.0,ENE,11.5,-,N/A,,Clear,70,2013-11-03 15:53:00
10:53 AM,62.1,42.1,48,30.24,10.0,ENE,11.5,-,N/A,,Clear,60,2013-11-03 16:53:00
11:53 AM,64.0,42.1,45,30.21,10.0,ENE,8.1,-,N/A,,Clear,60,2013-11-03 17:53:00
12:53 PM,64.9,42.1,43,30.17,10.0,ENE,8.1,-,N/A,,Clear,70,2013-11-03 18:53:00
1:53 PM,66.0,41.0,40,30.14,10.0,Variable,3.5,-,N/A,,Clear,0,2013-11-03 19:53:00
2:53 PM,66.0,42.1,42,30.13,10.0,East,4.6,-,N/A,,Clear,100,2013-11-03 20:53:00
3:53 PM,64.9,39.9,40,30.13,10.0,ESE,5.8,-,N/A,,Clear,110,2013-11-03 21:53:00
4:53 PM,62.1,42.1,48,30.14,10.0,East,4.6,-,N/A,,Clear,100,2013-11-03 22:53:00
5:53 PM,55.9,46.9,72,30.16,10.0,Calm,Calm,-,N/A,,Clear,0,2013-11-03 23:53:00
6:53 PM,51.1,46.9,86,30.19,10.0,NE,3.5,-,N/A,,Clear,50,2013-11-04 00:53:00
7:53 PM,51.1,46.9,86,30.20,10.0,Calm,Calm,-,N/A,,Clear,0,2013-11-04 01:53:00
8:53 PM,48.9,46.0,90,30.20,10.0,East,3.5,-,N/A,,Clear,80,2013-11-04 02:53:00
9:53 PM,48.9,45.0,86,30.19,10.0,Calm,Calm,-,N/A,,Clear,0,2013-11-04 03:53:00
10:53 PM,48.0,46.0,93,30.19,10.0,Calm,Calm,-,N/A,,Clear,0,2013-11-04 04:53:00